Time,TemperatureF,DewpointF,PressureIn,WindDirection,WindDirectionDegrees,WindSpeedMPH,WindSpeedGustMPH,Humidity,HourlyPrecipIn,Conditions,Clouds,dailyrainin,SoftwareType,DateUTC
2013-05-05 00:02:00,40.0,36.0,30.42,WNW,286,0.0,0.0,86,0.00,,,0.00,,2013-05-05 04:02:00,
2013-05-05 00:12:00,40.0,36.0,30.42,WNW,286,0.0,0.0,86,0.00,,,0.00,,2013-05-05 04:12:00,
2013-05-05 00:23:00,39.0,35.0,30.42,WNW,286,0.0,0.0,87,0.00,,,0.00,,2013-05-05 04:23:00,
2013-05-05 00:33:00,39.0,35.0,30.42,WNW,286,0.0,0.0,87,0.00,,,0.00,,2013-05-05 04:33:00,
2013-05-05 00:43:00,39.0,35.0,30.42,WNW,286,0.0,0.0,87,0.00,,,0.00,,2013-05-05 04:43:00,
2013-05-05 00:53:00,38.0,35.0,30.42,WNW,286,0.0,0.0,89,0.00,,,0.00,,2013-05-05 04:53:00,
2013-05-05 01:02:00,38.0,35.0,30.42,WNW,286,0.0,0.0,89,0.00,,,0.00,,2013-05-05 05:02:00,
2013-05-05 01:12:00,38.0,35.0,30.42,WNW,286,0.0,0.0,89,0.00,,,0.00,,2013-05-05 05:12:00,
2013-05-05 01:22:00,37.0,34.0,30.42,WNW,286,0.0,0.0,90,0.00,,,0.00,,2013-05-05 05:22:00,
2013-05-05 01:32:00,37.0,34.0,30.42,WNW,286,0.0,0.0,90,0.00,,,0.00,,2013-05-05 05:32:00,
2013-05-05 01:42:00,37.0,34.0,30.42,WNW,286,0.0,0.0,90,0.00,,,0.00,,2013-05-05 05:42:00,
2013-05-05 01:52:00,37.0,35.0,30.42,WNW,286,0.0,0.0,91,0.00,,,0.00,,2013-05-05 05:52:00,
2013-05-05 02:01:00,37.0,35.0,30.42,WNW,286,0.0,0.0,91,0.00,,,0.00,,2013-05-05 06:01:00,
2013-05-05 02:12:00,37.0,35.0,30.42,WNW,286,0.0,0.0,91,0.00,,,0.00,,2013-05-05 06:12:00,
2013-05-05 02:22:00,36.0,34.0,30.41,WNW,285,0.0,0.0,91,0.00,,,0.00,,2013-05-05 06:22:00,
2013-05-05 02:32:00,36.0,34.0,30.41,WNW,285,0.0,0.0,91,0.00,,,0.00,,2013-05-05 06:32:00,
2013-05-05 02:42:00,36.0,34.0,30.41,WNW,285,0.0,0.0,91,0.00,,,0.00,,2013-05-05 06:42:00,
2013-05-05 02:52:00,35.0,33.0,30.40,WNW,286,0.0,0.0,92,0.00,,,0.00,,2013-05-05 06:52:00,
2013-05-05 03:01:00,35.0,33.0,30.40,WNW,286,0.0,0.0,92,0.00,,,0.00,,2013-05-05 07:01:00,
2013-05-05 03:11:00,35.0,33.0,30.40,WNW,286,0.0,0.0,92,0.00,,,0.00,,2013-05-05 07:11:00,
2013-05-05 03:22:00,35.0,33.0,30.40,WNW,285,0.0,0.0,92,0.00,,,0.00,,2013-05-05 07:22:00,
2013-05-05 03:32:00,35.0,33.0,30.40,WNW,285,0.0,0.0,92,0.00,,,0.00,,2013-05-05 07:32:00,
2013-05-05 03:42:00,35.0,33.0,30.40,WNW,285,0.0,0.0,92,0.00,,,0.00,,2013-05-05 07:42:00,
2013-05-05 03:52:00,34.0,32.0,30.40,WNW,286,0.0,0.0,93,0.00,,,0.00,,2013-05-05 07:52:00,
2013-05-05 04:02:00,34.0,32.0,30.40,WNW,286,0.0,0.0,93,0.00,,,0.00,,2013-05-05 08:02:00,
2013-05-05 04:11:00,34.0,32.0,30.40,WNW,286,0.0,0.0,93,0.00,,,0.00,,2013-05-05 08:11:00,
2013-05-05 04:22:00,34.0,32.0,30.40,WNW,286,0.0,0.0,93,0.00,,,0.00,,2013-05-05 08:22:00,
2013-05-05 04:32:00,34.0,32.0,30.40,WNW,286,0.0,0.0,93,0.00,,,0.00,,2013-05-05 08:32:00,
2013-05-05 04:42:00,34.0,32.0,30.40,WNW,286,0.0,0.0,93,0.00,,,0.00,,2013-05-05 08:42:00,
2013-05-05 04:53:00,33.0,31.0,30.40,WNW,285,0.0,0.0,93,0.00,,,0.00,,2013-05-05 08:53:00,
2013-05-05 05:01:00,33.0,31.0,30.40,WNW,285,0.0,0.0,93,0.00,,,0.00,,2013-05-05 09:01:00,
2013-05-05 05:11:00,33.0,31.0,30.40,WNW,285,0.0,0.0,93,0.00,,,0.00,,2013-05-05 09:11:00,
2013-05-05 05:21:00,33.0,31.0,30.40,WNW,285,0.0,0.0,94,0.00,,,0.00,,2013-05-05 09:21:00,
2013-05-05 05:33:00,33.0,31.0,30.40,WNW,285,0.0,0.0,94,0.00,,,0.00,,2013-05-05 09:33:00,
2013-05-05 05:42:00,33.0,31.0,30.40,WNW,285,0.0,0.0,94,0.00,,,0.00,,2013-05-05 09:42:00,
2013-05-05 05:52:00,33.0,31.0,30.40,WNW,285,0.0,0.0,94,0.00,,,0.00,,2013-05-05 09:52:00,
2013-05-05 06:03:00,33.0,31.0,30.40,WNW,285,0.0,0.0,94,0.00,,,0.00,,2013-05-05 10:03:00,
2013-05-05 06:12:00,33.0,31.0,30.40,WNW,285,0.0,0.0,94,0.00,,,0.00,,2013-05-05 10:12:00,
2013-05-05 06:22:00,34.0,32.0,30.40,WNW,285,0.0,0.0,94,0.00,,,0.00,,2013-05-05 10:22:00,
2013-05-05 06:32:00,34.0,32.0,30.40,WNW,285,0.0,0.0,94,0.00,,,0.00,,2013-05-05 10:32:00,
2013-05-05 06:42:00,34.0,32.0,30.40,WNW,285,0.0,0.0,94,0.00,,,0.00,,2013-05-05 10:42:00,
2013-05-05 06:53:00,36.0,35.0,30.40,SE,129,1.0,3.0,95,0.00,,,0.00,,2013-05-05 10:53:00,
2013-05-05 07:01:00,36.0,35.0,30.40,SE,129,1.0,3.0,95,0.00,,,0.00,,2013-05-05 11:01:00,
2013-05-05 07:12:00,36.0,35.0,30.40,SE,129,1.0,3.0,95,0.00,,,0.00,,2013-05-05 11:12:00,
2013-05-05 07:22:00,38.0,37.0,30.41,East,92,0.0,3.0,95,0.00,,,0.00,,2013-05-05 11:22:00,
2013-05-05 07:32:00,38.0,37.0,30.41,East,92,0.0,3.0,95,0.00,,,0.00,,2013-05-05 11:32:00,
2013-05-05 07:42:00,38.0,37.0,30.41,East,92,0.0,3.0,95,0.00,,,0.00,,2013-05-05 11:42:00,
2013-05-05 07:52:00,42.0,41.0,30.41,East,92,0.0,0.0,95,0.00,,,0.00,,2013-05-05 11:52:00,
2013-05-05 08:02:00,42.0,41.0,30.41,East,92,0.0,0.0,95,0.00,,,0.00,,2013-05-05 12:02:00,
2013-05-05 08:11:00,42.0,41.0,30.41,East,92,0.0,0.0,95,0.00,,,0.00,,2013-05-05 12:11:00,
2013-05-05 08:22:00,45.0,43.0,30.42,East,92,0.0,2.0,91,0.00,,,0.00,,2013-05-05 12:22:00,
2013-05-05 08:32:00,45.0,43.0,30.42,East,92,0.0,2.0,91,0.00,,,0.00,,2013-05-05 12:32:00,
2013-05-05 08:42:00,45.0,43.0,30.42,East,92,0.0,2.0,91,0.00,,,0.00,,2013-05-05 12:42:00,
2013-05-05 08:52:00,48.0,42.0,30.42,SE,127,0.0,2.0,79,0.00,,,0.00,,2013-05-05 12:52:00,
2013-05-05 09:01:00,48.0,42.0,30.42,SE,127,0.0,2.0,79,0.00,,,0.00,,2013-05-05 13:01:00,
2013-05-05 09:11:00,48.0,42.0,30.42,SE,127,0.0,2.0,79,0.00,,,0.00,,2013-05-05 13:11:00,
2013-05-05 09:21:00,51.0,40.0,30.41,SSW,200,1.0,4.0,65,0.00,,,0.00,,2013-05-05 13:21:00,
2013-05-05 09:32:00,51.0,40.0,30.41,SSW,200,1.0,4.0,65,0.00,,,0.00,,2013-05-05 13:32:00,
2013-05-05 09:42:00,51.0,40.0,30.41,SSW,200,1.0,4.0,65,0.00,,,0.00,,2013-05-05 13:42:00,
2013-05-05 09:52:00,53.0,40.0,30.41,South,181,0.0,1.0,61,0.00,,,0.00,,2013-05-05 13:52:00,
2013-05-05 10:02:00,53.0,40.0,30.41,South,181,0.0,1.0,61,0.00,,,0.00,,2013-05-05 14:02:00,
2013-05-05 10:11:00,53.0,40.0,30.41,South,181,0.0,1.0,61,0.00,,,0.00,,2013-05-05 14:11:00,
2013-05-05 10:21:00,54.0,40.0,30.41,West,281,1.0,5.0,58,0.00,,,0.00,,2013-05-05 14:21:00,
2013-05-05 10:32:00,54.0,40.0,30.41,West,281,1.0,5.0,58,0.00,,,0.00,,2013-05-05 14:32:00,
2013-05-05 10:42:00,54.0,40.0,30.41,West,281,1.0,5.0,58,0.00,,,0.00,,2013-05-05 14:42:00,
2013-05-05 10:52:00,56.0,40.0,30.40,East,96,1.0,3.0,54,0.00,,,0.00,,2013-05-05 14:52:00,
2013-05-05 11:02:00,56.0,40.0,30.40,East,96,1.0,3.0,54,0.00,,,0.00,,2013-05-05 15:02:00,
2013-05-05 11:11:00,56.0,40.0,30.40,East,96,1.0,3.0,54,0.00,,,0.00,,2013-05-05 15:11:00,
2013-05-05 11:21:00,57.0,41.0,30.40,WNW,295,0.0,3.0,55,0.00,,,0.00,,2013-05-05 15:21:00,
2013-05-05 11:33:00,57.0,41.0,30.40,WNW,295,0.0,3.0,55,0.00,,,0.00,,2013-05-05 15:33:00,
2013-05-05 11:43:00,57.0,41.0,30.40,WNW,295,0.0,3.0,55,0.00,,,0.00,,2013-05-05 15:43:00,
2013-05-05 11:53:00,59.0,41.0,30.39,WSW,250,1.0,4.0,52,0.00,,,0.00,,2013-05-05 15:53:00,
2013-05-05 12:03:00,59.0,41.0,30.39,WSW,250,1.0,4.0,52,0.00,,,0.00,,2013-05-05 16:03:00,
2013-05-05 12:12:00,59.0,41.0,30.39,WSW,250,1.0,4.0,52,0.00,,,0.00,,2013-05-05 16:12:00,
2013-05-05 12:23:00,60.0,42.0,30.38,SW,233,1.0,5.0,51,0.00,,,0.00,,2013-05-05 16:23:00,
2013-05-05 12:32:00,60.0,42.0,30.38,SW,233,1.0,5.0,51,0.00,,,0.00,,2013-05-05 16:32:00,
2013-05-05 12:42:00,60.0,42.0,30.38,SW,233,1.0,5.0,51,0.00,,,0.00,,2013-05-05 16:42:00,
2013-05-05 12:53:00,61.0,41.0,30.37,East,79,3.0,5.0,48,0.00,,,0.00,,2013-05-05 16:53:00,
2013-05-05 13:02:00,61.0,41.0,30.37,East,79,3.0,5.0,48,0.00,,,0.00,,2013-05-05 17:02:00,
2013-05-05 13:12:00,61.0,41.0,30.37,East,79,3.0,5.0,48,0.00,,,0.00,,2013-05-05 17:12:00,
2013-05-05 13:23:00,63.0,42.0,30.36,North,11,1.0,4.0,46,0.00,,,0.00,,2013-05-05 17:23:00,
2013-05-05 13:32:00,63.0,42.0,30.36,North,11,1.0,4.0,46,0.00,,,0.00,,2013-05-05 17:32:00,
2013-05-05 13:42:00,63.0,42.0,30.36,North,11,1.0,4.0,46,0.00,,,0.00,,2013-05-05 17:42:00,
2013-05-05 13:52:00,63.0,41.0,30.36,WSW,254,4.0,9.0,45,0.00,,,0.00,,2013-05-05 17:52:00,
2013-05-05 14:01:00,63.0,41.0,30.36,WSW,254,4.0,9.0,45,0.00,,,0.00,,2013-05-05 18:01:00,
2013-05-05 14:12:00,63.0,41.0,30.36,WSW,254,4.0,9.0,45,0.00,,,0.00,,2013-05-05 18:12:00,
2013-05-05 14:21:00,63.0,42.0,30.36,WNW,288,2.0,7.0,46,0.00,,,0.00,,2013-05-05 18:21:00,
2013-05-05 14:32:00,63.0,42.0,30.36,WNW,288,2.0,7.0,46,0.00,,,0.00,,2013-05-05 18:32:00,
2013-05-05 14:42:00,63.0,42.0,30.36,WNW,288,2.0,7.0,46,0.00,,,0.00,,2013-05-05 18:42:00,
2013-05-05 14:52:00,64.0,42.0,30.35,WSW,248,2.0,8.0,44,0.00,,,0.00,,2013-05-05 18:52:00,
2013-05-05 15:01:00,64.0,42.0,30.35,WSW,248,2.0,8.0,44,0.00,,,0.00,,2013-05-05 19:01:00,
2013-05-05 15:12:00,64.0,42.0,30.35,WSW,248,2.0,8.0,44,0.00,,,0.00,,2013-05-05 19:12:00,
2013-05-05 15:21:00,63.0,41.0,30.35,West,264,3.0,11.0,45,0.00,,,0.00,,2013-05-05 19:21:00,
2013-05-05 15:32:00,63.0,41.0,30.35,West,264,3.0,11.0,45,0.00,,,0.00,,2013-05-05 19:32:00,
2013-05-05 15:42:00,63.0,41.0,30.35,West,264,3.0,11.0,45,0.00,,,0.00,,2013-05-05 19:42:00,
2013-05-05 15:52:00,63.0,41.0,30.35,West,259,1.0,7.0,45,0.00,,,0.00,,2013-05-05 19:52:00,
2013-05-05 16:01:00,63.0,41.0,30.35,West,259,1.0,7.0,45,0.00,,,0.00,,2013-05-05 20:01:00,
2013-05-05 16:11:00,63.0,41.0,30.35,West,259,1.0,7.0,45,0.00,,,0.00,,2013-05-05 20:11:00,
2013-05-05 16:21:00,63.0,41.0,30.34,West,281,2.0,6.0,45,0.00,,,0.00,,2013-05-05 20:21:00,
2013-05-05 16:32:00,63.0,41.0,30.34,West,281,2.0,6.0,45,0.00,,,0.00,,2013-05-05 20:32:00,
2013-05-05 16:42:00,63.0,41.0,30.34,West,281,2.0,6.0,45,0.00,,,0.00,,2013-05-05 20:42:00,
2013-05-05 16:52:00,62.0,40.0,30.34,West,271,2.0,8.0,45,0.00,,,0.00,,2013-05-05 20:52:00,
2013-05-05 17:02:00,62.0,40.0,30.34,West,271,2.0,8.0,45,0.00,,,0.00,,2013-05-05 21:02:00,
2013-05-05 17:11:00,62.0,40.0,30.34,West,271,2.0,8.0,45,0.00,,,0.00,,2013-05-05 21:11:00,
2013-05-05 17:21:00,62.0,40.0,30.34,North,359,2.0,7.0,45,0.00,,,0.00,,2013-05-05 21:21:00,
2013-05-05 17:33:00,62.0,40.0,30.34,North,359,2.0,7.0,45,0.00,,,0.00,,2013-05-05 21:33:00,
2013-05-05 17:42:00,62.0,40.0,30.34,North,359,2.0,7.0,45,0.00,,,0.00,,2013-05-05 21:42:00,
2013-05-05 17:53:00,60.0,39.0,30.34,SW,218,3.0,9.0,46,0.00,,,0.00,,2013-05-05 21:53:00,
2013-05-05 18:02:00,60.0,39.0,30.34,SW,218,3.0,9.0,46,0.00,,,0.00,,2013-05-05 22:02:00,
2013-05-05 18:12:00,60.0,39.0,30.34,SW,218,3.0,9.0,46,0.00,,,0.00,,2013-05-05 22:12:00,
2013-05-05 18:22:00,59.0,40.0,30.33,West,264,2.0,6.0,49,0.00,,,0.00,,2013-05-05 22:22:00,
2013-05-05 18:33:00,59.0,40.0,30.33,West,264,2.0,6.0,49,0.00,,,0.00,,2013-05-05 22:33:00,
2013-05-05 18:42:00,59.0,40.0,30.33,West,264,2.0,6.0,49,0.00,,,0.00,,2013-05-05 22:42:00,
2013-05-05 18:52:00,58.0,40.0,30.33,West,273,3.0,8.0,52,0.00,,,0.00,,2013-05-05 22:52:00,
2013-05-05 19:02:00,58.0,40.0,30.33,West,273,3.0,8.0,52,0.00,,,0.00,,2013-05-05 23:02:00,
2013-05-05 19:12:00,58.0,40.0,30.33,West,273,3.0,8.0,52,0.00,,,0.00,,2013-05-05 23:12:00,
2013-05-05 19:22:00,56.0,40.0,30.34,WSW,250,3.0,8.0,55,0.00,,,0.00,,2013-05-05 23:22:00,
2013-05-05 19:32:00,56.0,40.0,30.34,WSW,250,3.0,8.0,55,0.00,,,0.00,,2013-05-05 23:32:00,
2013-05-05 19:42:00,56.0,40.0,30.34,WSW,250,3.0,8.0,55,0.00,,,0.00,,2013-05-05 23:42:00,
2013-05-05 19:52:00,54.0,40.0,30.35,WSW,253,1.0,5.0,58,0.00,,,0.00,,2013-05-05 23:52:00,
2013-05-05 20:01:00,54.0,40.0,30.35,WSW,253,1.0,5.0,58,0.00,,,0.00,,2013-05-06 00:01:00,
2013-05-05 20:11:00,54.0,40.0,30.35,WSW,253,1.0,5.0,58,0.00,,,0.00,,2013-05-06 00:11:00,
2013-05-05 20:22:00,52.0,40.0,30.35,WSW,252,0.0,5.0,63,0.00,,,0.00,,2013-05-06 00:22:00,
2013-05-05 20:32:00,52.0,40.0,30.35,WSW,252,0.0,5.0,63,0.00,,,0.00,,2013-05-06 00:32:00,
2013-05-05 20:42:00,52.0,40.0,30.35,WSW,252,0.0,5.0,63,0.00,,,0.00,,2013-05-06 00:42:00,
2013-05-05 20:52:00,50.0,39.0,30.35,WSW,257,0.0,5.0,66,0.00,,,0.00,,2013-05-06 00:52:00,
2013-05-05 21:01:00,50.0,39.0,30.35,WSW,257,0.0,5.0,66,0.00,,,0.00,,2013-05-06 01:01:00,
2013-05-05 21:11:00,50.0,39.0,30.35,WSW,257,0.0,5.0,66,0.00,,,0.00,,2013-05-06 01:11:00,
2013-05-05 21:21:00,49.0,39.0,30.36,WSW,244,0.0,2.0,67,0.00,,,0.00,,2013-05-06 01:21:00,
2013-05-05 21:32:00,49.0,39.0,30.36,WSW,244,0.0,2.0,67,0.00,,,0.00,,2013-05-06 01:32:00,
2013-05-05 21:42:00,49.0,39.0,30.36,WSW,244,0.0,2.0,67,0.00,,,0.00,,2013-05-06 01:42:00,
2013-05-05 21:52:00,48.0,39.0,30.36,West,267,0.0,1.0,70,0.00,,,0.00,,2013-05-06 01:52:00,
2013-05-05 22:02:00,48.0,39.0,30.36,West,267,0.0,1.0,70,0.00,,,0.00,,2013-05-06 02:02:00,
2013-05-05 22:12:00,48.0,39.0,30.36,West,267,0.0,1.0,70,0.00,,,0.00,,2013-05-06 02:12:00,
2013-05-05 22:21:00,46.0,38.0,30.36,West,267,0.0,0.0,73,0.00,,,0.00,,2013-05-06 02:21:00,
2013-05-05 22:32:00,46.0,38.0,30.36,West,267,0.0,0.0,73,0.00,,,0.00,,2013-05-06 02:32:00,
2013-05-05 22:42:00,46.0,38.0,30.36,West,267,0.0,0.0,73,0.00,,,0.00,,2013-05-06 02:42:00,
2013-05-05 22:52:00,45.0,38.0,30.36,West,267,0.0,0.0,77,0.00,,,0.00,,2013-05-06 02:52:00,
2013-05-05 23:02:00,45.0,38.0,30.36,West,267,0.0,0.0,77,0.00,,,0.00,,2013-05-06 03:02:00,
2013-05-05 23:11:00,45.0,38.0,30.36,West,267,0.0,0.0,77,0.00,,,0.00,,2013-05-06 03:11:00,
2013-05-05 23:22:00,43.0,38.0,30.36,West,267,0.0,0.0,81,0.00,,,0.00,,2013-05-06 03:22:00,
2013-05-05 23:33:00,43.0,38.0,30.36,West,267,0.0,0.0,81,0.00,,,0.00,,2013-05-06 03:33:00,
2013-05-05 23:42:00,43.0,38.0,30.36,West,267,0.0,0.0,81,0.00,,,0.00,,2013-05-06 03:42:00,
2013-05-05 23:53:00,42.0,38.0,30.36,West,267,0.0,0.0,85,0.00,,,0.00,,2013-05-06 03:53:00,